Location: Champs
(48.8539°N, 2.6040°E)
Time: 13:45:23
(UTC+00:00)

Cosmos 1538 Rocket - Pass Details

Date: 03 June 2022
Orbit: 752 x 791 km, 74.0° (Epoch: 28 June)

Event Time Altitude Azimuth Distance (km) Brightness Sun altitude
Rises 21:32:16 0° 323° (NW) 3,237 9.3 -12.6°
Reaches altitude 10° 21:35:23 10° 305° (NW) 2,299 7.6 -12.9°
Maximum altitude 21:38:42 17° 265° (W) 1,828 6.3 -13.1°
Drops below altitude 10° 21:42:01 10° 225° (SW) 2,277 6.3 -13.4°
Enters shadow 21:44:44 - 207° (SSW) 3,079 6.8 -13.6°
